Time,TemperatureF,DewpointF,PressureIn,WindDirection,WindDirectionDegrees,WindSpeedMPH,WindSpeedGustMPH,Humidity,HourlyPrecipIn,Conditions,Clouds,dailyrainin,SoftwareType,DateUTC
2013-04-27 00:09:00,43.0,37.9,28.28,WSW,258,2.0,2.0,82,0.00,CLR,CLR,0.00,WeatherDisplay:10.37,2013-04-27 05:09:00,
2013-04-27 00:19:00,43.0,37.9,28.28,WSW,258,1.0,3.0,82,0.00,CLR,CLR,0.00,WeatherDisplay:10.37,2013-04-27 05:19:00,
2013-04-27 00:29:00,42.8,37.7,28.28,WSW,258,0.0,3.0,82,0.00,CLR,CLR,0.00,WeatherDisplay:10.37,2013-04-27 05:29:00,
2013-04-27 00:39:00,42.7,37.9,28.28,WSW,256,2.0,4.0,83,0.00,CLR,CLR,0.00,WeatherDisplay:10.37,2013-04-27 05:39:00,
2013-04-27 00:49:00,42.6,37.8,28.28,WSW,251,1.0,4.0,83,0.00,CLR,CLR,0.00,WeatherDisplay:10.37,2013-04-27 05:49:00,
2013-04-27 00:59:00,42.5,37.7,28.28,WSW,252,2.0,4.0,83,0.00,CLR,CLR,0.00,WeatherDisplay:10.37,2013-04-27 05:59:00,
2013-04-27 01:09:00,42.9,37.8,28.28,WSW,252,2.0,5.0,82,0.00,CLR,CLR,0.00,WeatherDisplay:10.37,2013-04-27 06:09:00,
2013-04-27 01:19:00,43.1,37.7,28.28,WSW,251,2.0,5.0,81,0.00,CLR,CLR,0.00,WeatherDisplay:10.37,2013-04-27 06:19:00,
2013-04-27 01:29:00,43.4,37.6,28.28,WSW,258,2.0,4.0,80,0.00,CLR,CLR,0.00,WeatherDisplay:10.37,2013-04-27 06:29:00,
2013-04-27 01:39:00,43.5,37.7,28.28,WSW,249,2.0,4.0,80,0.00,CLR,CLR,0.00,WeatherDisplay:10.37,2013-04-27 06:39:00,
2013-04-27 01:49:00,43.6,37.8,28.27,WSW,248,3.0,4.0,80,0.00,CLR,CLR,0.00,WeatherDisplay:10.37,2013-04-27 06:49:00,
2013-04-27 01:59:00,43.7,37.6,28.27,WSW,249,2.0,4.0,79,0.00,CLR,CLR,0.00,WeatherDisplay:10.37,2013-04-27 06:59:00,
2013-04-27 02:09:00,43.4,37.4,28.27,WSW,249,2.0,4.0,79,0.00,CLR,CLR,0.00,WeatherDisplay:10.37,2013-04-27 07:09:00,
2013-04-27 02:19:00,43.0,37.3,28.27,WSW,249,1.0,3.0,80,0.00,CLR,CLR,0.00,WeatherDisplay:10.37,2013-04-27 07:19:00,
2013-04-27 02:29:00,42.6,37.2,28.26,WSW,249,1.0,3.0,81,0.00,CLR,CLR,0.00,WeatherDisplay:10.37,2013-04-27 07:29:00,
2013-04-27 02:39:00,42.1,36.7,28.26,WSW,248,1.0,3.0,81,0.00,CLR,CLR,0.00,WeatherDisplay:10.37,2013-04-27 07:39:00,
2013-04-27 02:49:00,41.7,36.3,28.26,WSW,248,1.0,3.0,81,0.00,CLR,CLR,0.00,WeatherDisplay:10.37,2013-04-27 07:49:00,
2013-04-27 02:59:00,41.3,36.5,28.26,WSW,248,1.0,3.0,83,0.00,CLR,CLR,0.00,WeatherDisplay:10.37,2013-04-27 07:59:00,
2013-04-27 03:09:00,41.1,36.6,28.25,WSW,247,1.0,2.0,84,0.00,CLR,CLR,0.00,WeatherDisplay:10.37,2013-04-27 08:09:00,
2013-04-27 03:19:00,40.7,36.2,28.26,WSW,249,0.0,2.0,84,0.00,CLR,CLR,0.00,WeatherDisplay:10.37,2013-04-27 08:19:00,
2013-04-27 03:29:00,40.2,35.8,28.26,WSW,256,0.0,1.0,84,0.00,CLR,CLR,0.00,WeatherDisplay:10.37,2013-04-27 08:29:00,
2013-04-27 03:39:00,39.8,35.9,28.26,WSW,256,1.0,3.0,86,0.00,CLR,CLR,0.00,WeatherDisplay:10.37,2013-04-27 08:39:00,
2013-04-27 03:49:00,39.5,35.7,28.25,WSW,249,1.0,3.0,86,0.00,CLR,CLR,0.00,WeatherDisplay:10.37,2013-04-27 08:49:00,
2013-04-27 03:59:00,39.5,35.7,28.25,WSW,247,1.0,3.0,86,0.00,CLR,CLR,0.00,WeatherDisplay:10.37,2013-04-27 08:59:00,
2013-04-27 04:09:00,39.8,36.0,28.25,WSW,241,1.0,3.0,86,0.00,CLR,CLR,0.00,WeatherDisplay:10.37,2013-04-27 09:09:00,
2013-04-27 04:19:00,39.9,35.8,28.25,WSW,240,0.0,2.0,85,0.00,CLR,CLR,0.00,WeatherDisplay:10.37,2013-04-27 09:19:00,
2013-04-27 04:29:00,39.9,35.8,28.24,WSW,242,1.0,3.0,85,0.00,CLR,CLR,0.00,WeatherDisplay:10.37,2013-04-27 09:29:00,
2013-04-27 04:39:00,39.8,35.4,28.25,WSW,239,1.0,3.0,84,0.00,CLR,CLR,0.00,WeatherDisplay:10.37,2013-04-27 09:39:00,
2013-04-27 04:49:00,39.6,35.1,28.24,WSW,239,1.0,4.0,84,0.00,CLR,CLR,0.00,WeatherDisplay:10.37,2013-04-27 09:49:00,
2013-04-27 04:59:00,39.5,34.8,28.24,WSW,239,1.0,3.0,83,0.00,CLR,CLR,0.00,WeatherDisplay:10.37,2013-04-27 09:59:00,
2013-04-27 05:09:00,39.8,35.1,28.24,WSW,243,2.0,4.0,83,0.00,CLR,CLR,0.00,WeatherDisplay:10.37,2013-04-27 10:09:00,
2013-04-27 05:19:00,40.7,35.9,28.24,WSW,249,2.0,5.0,83,0.00,CLR,CLR,0.00,WeatherDisplay:10.37,2013-04-27 10:19:00,
2013-04-27 05:29:00,41.1,36.4,28.24,WSW,247,7.0,9.0,83,0.00,CLR,CLR,0.00,WeatherDisplay:10.37,2013-04-27 10:29:00,
2013-04-27 05:39:00,41.9,36.2,28.24,WSW,244,5.0,9.0,80,0.00,CLR,CLR,0.00,WeatherDisplay:10.37,2013-04-27 10:39:00,
2013-04-27 05:49:00,42.1,36.1,28.24,WSW,248,7.0,10.0,79,0.00,CLR,CLR,0.00,WeatherDisplay:10.37,2013-04-27 10:49:00,
2013-04-27 05:59:00,41.9,35.9,28.23,WSW,247,6.0,8.0,79,0.00,CLR,CLR,0.00,WeatherDisplay:10.37,2013-04-27 10:59:00,
2013-04-27 06:09:00,41.4,35.4,28.24,WSW,245,6.0,8.0,79,0.00,CLR,CLR,0.00,WeatherDisplay:10.37,2013-04-27 11:09:00,
2013-04-27 06:19:00,41.2,35.5,28.24,WSW,239,6.0,8.0,80,0.00,CLR,CLR,0.00,WeatherDisplay:10.37,2013-04-27 11:19:00,
2013-04-27 06:29:00,40.0,34.3,28.24,WSW,240,2.0,7.0,80,0.00,CLR,CLR,0.00,WeatherDisplay:10.37,2013-04-27 11:29:00,
2013-04-27 06:39:00,39.5,34.5,28.23,WSW,245,2.0,6.0,82,0.00,CLR,CLR,0.00,WeatherDisplay:10.37,2013-04-27 11:39:00,
2013-04-27 06:49:00,39.6,34.6,28.23,WSW,243,3.0,5.0,82,0.00,CLR,CLR,0.00,WeatherDisplay:10.37,2013-04-27 11:49:00,
2013-04-27 06:59:00,40.2,35.4,28.23,WSW,244,3.0,5.0,83,0.00,CLR,CLR,0.00,WeatherDisplay:10.37,2013-04-27 11:59:00,
2013-04-27 07:09:00,41.6,36.5,28.23,WSW,245,3.0,5.0,82,0.00,CLR,CLR,0.00,WeatherDisplay:10.37,2013-04-27 12:09:00,
2013-04-27 07:19:00,42.8,37.0,28.24,WSW,243,2.0,5.0,80,0.00,CLR,CLR,0.00,WeatherDisplay:10.37,2013-04-27 12:19:00,
2013-04-27 07:29:00,44.2,38.4,28.23,WSW,247,3.0,5.0,80,0.00,CLR,CLR,0.00,WeatherDisplay:10.37,2013-04-27 12:29:00,
2013-04-27 07:39:00,45.8,39.3,28.23,WSW,250,3.0,6.0,78,0.00,CLR,CLR,0.00,WeatherDisplay:10.37,2013-04-27 12:39:00,
2013-04-27 07:49:00,47.0,39.8,28.23,WSW,249,3.0,6.0,76,0.00,CLR,CLR,0.00,WeatherDisplay:10.37,2013-04-27 12:49:00,
2013-04-27 07:59:00,47.8,39.6,28.23,WSW,250,3.0,6.0,73,0.00,CLR,CLR,0.00,WeatherDisplay:10.37,2013-04-27 12:59:00,
2013-04-27 08:09:00,48.7,40.8,28.23,WSW,252,5.0,7.0,74,0.00,CLR,CLR,0.00,WeatherDisplay:10.37,2013-04-27 13:09:00,
2013-04-27 08:19:00,49.6,41.3,28.23,WSW,252,5.0,7.0,73,0.00,CLR,CLR,0.00,WeatherDisplay:10.37,2013-04-27 13:19:00,
2013-04-27 08:29:00,50.6,41.9,28.23,WSW,251,6.0,10.0,72,0.00,CLR,CLR,0.00,WeatherDisplay:10.37,2013-04-27 13:29:00,
2013-04-27 08:39:00,51.7,42.6,28.23,WSW,253,7.0,8.0,71,0.00,CLR,CLR,0.00,WeatherDisplay:10.37,2013-04-27 13:39:00,
2013-04-27 08:49:00,52.5,43.0,28.23,WSW,251,6.0,12.0,70,0.00,CLR,CLR,0.00,WeatherDisplay:10.37,2013-04-27 13:49:00,
2013-04-27 08:59:00,53.5,43.5,28.22,WSW,249,5.0,10.0,69,0.00,CLR,CLR,0.00,WeatherDisplay:10.37,2013-04-27 13:59:00,
2013-04-27 09:09:00,54.6,43.8,28.22,WSW,250,5.0,10.0,67,0.00,CLR,CLR,0.00,WeatherDisplay:10.37,2013-04-27 14:09:00,
2013-04-27 09:19:00,55.6,44.4,28.22,WSW,254,5.0,8.0,66,0.00,CLR,CLR,0.00,WeatherDisplay:10.37,2013-04-27 14:19:00,
2013-04-27 09:29:00,56.7,44.2,28.22,WSW,250,5.0,9.0,63,0.00,CLR,CLR,0.00,WeatherDisplay:10.37,2013-04-27 14:29:00,
2013-04-27 09:39:00,58.1,45.2,28.22,WSW,251,3.0,8.0,62,0.00,CLR,CLR,0.00,WeatherDisplay:10.37,2013-04-27 14:39:00,
2013-04-27 09:49:00,59.1,45.6,28.22,WSW,246,3.0,10.0,61,0.00,CLR,CLR,0.00,WeatherDisplay:10.37,2013-04-27 14:49:00,
2013-04-27 09:59:00,59.7,44.9,28.22,WSW,245,5.0,8.0,58,0.00,CLR,CLR,0.00,WeatherDisplay:10.37,2013-04-27 14:59:00,
2013-04-27 10:09:00,60.6,45.8,28.21,WSW,246,3.0,8.0,58,0.00,CLR,CLR,0.00,WeatherDisplay:10.37,2013-04-27 15:09:00,
2013-04-27 10:19:00,60.9,46.0,28.21,WSW,255,6.0,8.0,58,0.00,CLR,CLR,0.00,WeatherDisplay:10.37,2013-04-27 15:19:00,
2013-04-27 10:29:00,61.6,46.2,28.21,WSW,247,5.0,9.0,57,0.00,CLR,CLR,0.00,WeatherDisplay:10.37,2013-04-27 15:29:00,
2013-04-27 10:39:00,62.2,46.8,28.21,WSW,240,6.0,12.0,57,0.00,CLR,CLR,0.00,WeatherDisplay:10.37,2013-04-27 15:39:00,
2013-04-27 10:49:00,62.5,46.6,28.21,WSW,243,6.0,12.0,56,0.00,CLR,CLR,0.00,WeatherDisplay:10.37,2013-04-27 15:49:00,
2013-04-27 10:59:00,63.1,46.7,28.21,WSW,245,5.0,9.0,55,0.00,CLR,CLR,0.00,WeatherDisplay:10.37,2013-04-27 15:59:00,
2013-04-27 11:09:00,63.7,47.7,28.21,WSW,241,7.0,12.0,56,0.00,CLR,CLR,0.00,WeatherDisplay:10.37,2013-04-27 16:09:00,
2013-04-27 11:19:00,64.1,47.6,28.21,WSW,243,5.0,10.0,55,0.00,CLR,CLR,0.00,WeatherDisplay:10.37,2013-04-27 16:19:00,
2013-04-27 11:29:00,64.7,48.1,28.21,WSW,247,6.0,12.0,55,0.00,CLR,CLR,0.00,WeatherDisplay:10.37,2013-04-27 16:29:00,
2013-04-27 11:39:00,65.2,49.6,28.20,WSW,248,3.0,10.0,57,0.00,CLR,CLR,0.00,WeatherDisplay:10.37,2013-04-27 16:39:00,
2013-04-27 11:49:00,65.5,49.4,28.20,WSW,245,8.0,13.0,56,0.00,CLR,CLR,0.00,WeatherDisplay:10.37,2013-04-27 16:49:00,
2013-04-27 11:59:00,65.8,50.1,28.20,WSW,251,5.0,12.0,57,0.00,CLR,CLR,0.00,WeatherDisplay:10.37,2013-04-27 16:59:00,
2013-04-27 12:09:00,66.1,50.4,28.20,WSW,252,6.0,12.0,57,0.00,CLR,CLR,0.00,WeatherDisplay:10.37,2013-04-27 17:09:00,
2013-04-27 12:19:00,66.1,50.5,28.20,WSW,249,5.0,13.0,57,0.00,CLR,CLR,0.00,WeatherDisplay:10.37,2013-04-27 17:19:00,
2013-04-27 12:29:00,66.8,51.1,28.20,WSW,239,5.0,12.0,57,0.00,CLR,CLR,0.00,WeatherDisplay:10.37,2013-04-27 17:29:00,
2013-04-27 12:39:00,67.0,50.7,28.20,WSW,240,6.0,15.0,56,0.00,CLR,CLR,0.00,WeatherDisplay:10.37,2013-04-27 17:39:00,
2013-04-27 12:49:00,67.5,50.8,28.19,WSW,241,7.0,12.0,55,0.00,CLR,CLR,0.00,WeatherDisplay:10.37,2013-04-27 17:49:00,
2013-04-27 12:59:00,67.8,50.0,28.19,WSW,241,6.0,13.0,53,0.00,CLR,CLR,0.00,WeatherDisplay:10.37,2013-04-27 17:59:00,
2013-04-27 13:09:00,68.0,50.7,28.18,WSW,241,7.0,14.0,54,0.00,CLR,CLR,0.00,WeatherDisplay:10.37,2013-04-27 18:09:00,
2013-04-27 13:19:00,68.3,50.5,28.18,WSW,239,6.0,12.0,53,0.00,CLR,CLR,0.00,WeatherDisplay:10.37,2013-04-27 18:19:00,
2013-04-27 13:29:00,68.9,50.0,28.17,WSW,240,7.0,12.0,51,0.00,CLR,CLR,0.00,WeatherDisplay:10.37,2013-04-27 18:29:00,
2013-04-27 13:39:00,68.9,49.5,28.17,WSW,239,5.0,12.0,50,0.00,CLR,CLR,0.00,WeatherDisplay:10.37,2013-04-27 18:39:00,
2013-04-27 13:49:00,69.1,48.6,28.16,WSW,242,7.0,15.0,48,0.00,CLR,CLR,0.00,WeatherDisplay:10.37,2013-04-27 18:49:00,
2013-04-27 13:59:00,69.3,47.6,28.16,WSW,241,9.0,13.0,46,0.00,CLR,CLR,0.00,WeatherDisplay:10.37,2013-04-27 18:59:00,
2013-04-27 14:09:00,69.6,47.3,28.16,WSW,244,5.0,12.0,45,0.00,CLR,CLR,0.00,WeatherDisplay:10.37,2013-04-27 19:09:00,
2013-04-27 14:19:00,70.0,47.1,28.15,WSW,242,7.0,10.0,44,0.00,CLR,CLR,0.00,WeatherDisplay:10.37,2013-04-27 19:19:00,
2013-04-27 14:29:00,70.3,47.4,28.15,WSW,244,5.0,10.0,44,0.00,CLR,CLR,0.00,WeatherDisplay:10.37,2013-04-27 19:29:00,
2013-04-27 14:39:00,70.8,47.8,28.15,WSW,240,7.0,10.0,44,0.00,CLR,CLR,0.00,WeatherDisplay:10.37,2013-04-27 19:39:00,
2013-04-27 14:49:00,71.0,47.4,28.14,WSW,241,3.0,12.0,43,0.00,CLR,CLR,0.00,WeatherDisplay:10.37,2013-04-27 19:49:00,
2013-04-27 14:59:00,71.2,46.9,28.14,WSW,238,3.0,12.0,42,0.00,CLR,CLR,0.00,WeatherDisplay:10.37,2013-04-27 19:59:00,
2013-04-27 15:09:00,71.4,47.7,28.13,WSW,240,7.0,12.0,43,0.00,CLR,CLR,0.00,WeatherDisplay:10.37,2013-04-27 20:09:00,
2013-04-27 15:19:00,71.4,47.1,28.13,WSW,239,7.0,14.0,42,0.00,CLR,CLR,0.00,WeatherDisplay:10.37,2013-04-27 20:19:00,
2013-04-27 15:29:00,71.3,47.6,28.12,WSW,239,6.0,12.0,43,0.00,CLR,CLR,0.00,WeatherDisplay:10.37,2013-04-27 20:29:00,
2013-04-27 15:39:00,71.5,47.2,28.12,WSW,242,7.0,12.0,42,0.00,CLR,CLR,0.00,WeatherDisplay:10.37,2013-04-27 20:39:00,
2013-04-27 15:49:00,71.7,46.7,28.11,WSW,241,5.0,12.0,41,0.00,CLR,CLR,0.00,WeatherDisplay:10.37,2013-04-27 20:49:00,
2013-04-27 15:59:00,71.7,46.1,28.11,WSW,239,3.0,12.0,40,0.00,CLR,CLR,0.00,WeatherDisplay:10.37,2013-04-27 20:59:00,
2013-04-27 16:09:00,71.4,44.5,28.10,WSW,241,7.0,12.0,38,0.00,CLR,CLR,0.00,WeatherDisplay:10.37,2013-04-27 21:09:00,
2013-04-27 16:19:00,71.5,42.4,28.10,WSW,245,2.0,10.0,35,0.00,CLR,CLR,0.00,WeatherDisplay:10.37,2013-04-27 21:19:00,
2013-04-27 16:29:00,71.8,45.5,28.10,WSW,246,8.0,12.0,39,0.00,CLR,CLR,0.00,WeatherDisplay:10.37,2013-04-27 21:29:00,
2013-04-27 16:39:00,71.8,46.2,28.10,WSW,242,6.0,12.0,40,0.00,CLR,CLR,0.00,WeatherDisplay:10.37,2013-04-27 21:39:00,
2013-04-27 16:49:00,71.6,44.6,28.09,WSW,244,7.0,10.0,38,0.00,CLR,CLR,0.00,WeatherDisplay:10.37,2013-04-27 21:49:00,
2013-04-27 16:59:00,71.3,45.1,28.08,WSW,242,6.0,12.0,39,0.00,CLR,CLR,0.00,WeatherDisplay:10.37,2013-04-27 21:59:00,
2013-04-27 17:09:00,71.5,43.1,28.08,WSW,250,5.0,12.0,36,0.00,CLR,CLR,0.00,WeatherDisplay:10.37,2013-04-27 22:09:00,
2013-04-27 17:19:00,71.6,43.2,28.08,WSW,247,2.0,13.0,36,0.00,CLR,CLR,0.00,WeatherDisplay:10.37,2013-04-27 22:19:00,
2013-04-27 17:29:00,71.6,43.2,28.08,WSW,242,5.0,8.0,36,0.00,CLR,CLR,0.00,WeatherDisplay:10.37,2013-04-27 22:29:00,
2013-04-27 17:39:00,71.5,43.8,28.08,WSW,248,3.0,10.0,37,0.00,CLR,CLR,0.00,WeatherDisplay:10.37,2013-04-27 22:39:00,
2013-04-27 17:49:00,71.4,43.8,28.08,WSW,251,5.0,7.0,37,0.00,CLR,CLR,0.00,WeatherDisplay:10.37,2013-04-27 22:49:00,
2013-04-27 17:59:00,71.3,43.6,28.07,WSW,245,5.0,8.0,37,0.00,CLR,CLR,0.00,WeatherDisplay:10.37,2013-04-27 22:59:00,
2013-04-27 18:09:00,71.8,44.1,28.07,WSW,246,2.0,9.0,37,0.00,CLR,CLR,0.00,WeatherDisplay:10.37,2013-04-27 23:09:00,
2013-04-27 18:19:00,72.1,44.4,28.07,WSW,244,3.0,8.0,37,0.00,CLR,CLR,0.00,WeatherDisplay:10.37,2013-04-27 23:19:00,
2013-04-27 18:29:00,72.2,45.2,28.07,WSW,244,3.0,7.0,38,0.00,CLR,CLR,0.00,WeatherDisplay:10.37,2013-04-27 23:29:00,
2013-04-27 18:39:00,72.1,45.1,28.06,WSW,243,5.0,9.0,38,0.00,CLR,CLR,0.00,WeatherDisplay:10.37,2013-04-27 23:39:00,
2013-04-27 18:49:00,71.4,45.8,28.05,WSW,243,5.0,9.0,40,0.00,CLR,CLR,0.00,WeatherDisplay:10.37,2013-04-27 23:49:00,
2013-04-27 18:59:00,70.0,47.1,28.05,WSW,239,5.0,8.0,44,0.00,CLR,CLR,0.00,WeatherDisplay:10.37,2013-04-27 23:59:00,
2013-04-27 19:09:00,68.5,48.1,28.05,WSW,240,3.0,6.0,48,0.00,CLR,CLR,0.00,WeatherDisplay:10.37,2013-04-28 00:09:00,
2013-04-27 19:19:00,67.6,47.2,28.05,WSW,241,3.0,6.0,48,0.00,CLR,CLR,0.00,WeatherDisplay:10.37,2013-04-28 00:19:00,
2013-04-27 19:29:00,66.6,46.3,28.05,WSW,243,2.0,5.0,48,0.00,CLR,CLR,0.00,WeatherDisplay:10.37,2013-04-28 00:29:00,
2013-04-27 19:39:00,65.4,46.8,28.05,WSW,243,2.0,5.0,51,0.00,CLR,CLR,0.00,WeatherDisplay:10.37,2013-04-28 00:39:00,
2013-04-27 19:49:00,64.1,46.6,28.04,WSW,240,5.0,7.0,53,0.00,CLR,CLR,0.00,WeatherDisplay:10.37,2013-04-28 00:49:00,
2013-04-27 19:59:00,63.2,45.8,28.04,WSW,240,5.0,8.0,53,0.00,CLR,CLR,0.00,WeatherDisplay:10.37,2013-04-28 00:59:00,
2013-04-27 20:09:00,62.5,45.6,28.03,WSW,239,5.0,9.0,54,0.00,CLR,CLR,0.00,WeatherDisplay:10.37,2013-04-28 01:09:00,
2013-04-27 20:19:00,61.8,45.5,28.03,WSW,239,3.0,9.0,55,0.00,CLR,CLR,0.00,WeatherDisplay:10.37,2013-04-28 01:19:00,
2013-04-27 20:29:00,60.9,45.5,28.04,WSW,240,2.0,7.0,57,0.00,CLR,CLR,0.00,WeatherDisplay:10.37,2013-04-28 01:29:00,
2013-04-27 20:39:00,59.9,46.0,28.04,WSW,242,2.0,5.0,60,0.00,CLR,CLR,0.00,WeatherDisplay:10.37,2013-04-28 01:39:00,
2013-04-27 20:49:00,58.9,45.5,28.04,WSW,243,2.0,5.0,61,0.00,CLR,CLR,0.00,WeatherDisplay:10.37,2013-04-28 01:49:00,
2013-04-27 20:59:00,57.9,45.8,28.03,WSW,245,3.0,5.0,64,0.00,CLR,CLR,0.00,WeatherDisplay:10.37,2013-04-28 01:59:00,
2013-04-27 21:09:00,57.0,45.4,28.03,WSW,239,5.0,7.0,65,0.00,CLR,CLR,0.00,WeatherDisplay:10.37,2013-04-28 02:09:00,
2013-04-27 21:19:00,56.2,45.0,28.03,SW,234,3.0,6.0,66,0.00,CLR,CLR,0.00,WeatherDisplay:10.37,2013-04-28 02:19:00,
2013-04-27 21:29:00,55.6,44.4,28.03,SW,234,5.0,6.0,66,0.00,CLR,CLR,0.00,WeatherDisplay:10.37,2013-04-28 02:29:00,
2013-04-27 21:39:00,55.0,44.2,28.03,WSW,237,5.0,7.0,67,0.00,CLR,CLR,0.00,WeatherDisplay:10.37,2013-04-28 02:39:00,
2013-04-27 21:49:00,54.6,43.9,28.03,WSW,239,3.0,6.0,67,0.00,CLR,CLR,0.00,WeatherDisplay:10.37,2013-04-28 02:49:00,
2013-04-27 21:59:00,54.3,43.6,28.02,WSW,238,5.0,8.0,67,0.00,CLR,CLR,0.00,WeatherDisplay:10.37,2013-04-28 02:59:00,
2013-04-27 22:09:00,53.6,42.9,28.02,WSW,237,5.0,7.0,67,0.00,CLR,CLR,0.00,WeatherDisplay:10.37,2013-04-28 03:09:00,
2013-04-27 22:19:00,53.1,42.4,28.02,WSW,239,6.0,9.0,67,0.00,CLR,CLR,0.00,WeatherDisplay:10.37,2013-04-28 03:19:00,
2013-04-27 22:29:00,53.1,42.0,28.02,WSW,238,7.0,10.0,66,0.00,CLR,CLR,0.00,WeatherDisplay:10.37,2013-04-28 03:29:00,
2013-04-27 22:39:00,53.3,42.6,28.02,WSW,238,7.0,12.0,67,0.00,CLR,CLR,0.00,WeatherDisplay:10.37,2013-04-28 03:39:00,
2013-04-27 22:49:00,53.5,43.6,28.02,WSW,239,7.0,13.0,69,0.00,CLR,CLR,0.00,WeatherDisplay:10.37,2013-04-28 03:49:00,
2013-04-27 22:59:00,53.8,44.6,28.01,WSW,239,7.0,12.0,71,0.00,CLR,CLR,0.00,WeatherDisplay:10.37,2013-04-28 03:59:00,
2013-04-27 23:09:00,53.5,44.7,28.01,WSW,239,6.0,12.0,72,0.00,CLR,CLR,0.00,WeatherDisplay:10.37,2013-04-28 04:09:00,
2013-04-27 23:19:00,53.1,45.0,28.01,WSW,239,7.0,12.0,74,0.00,CLR,CLR,0.00,WeatherDisplay:10.37,2013-04-28 04:19:00,
2013-04-27 23:29:00,52.8,45.4,28.01,WSW,239,8.0,14.0,76,0.00,CLR,CLR,0.00,WeatherDisplay:10.37,2013-04-28 04:29:00,
2013-04-27 23:39:00,52.6,45.6,28.00,WSW,241,9.0,15.0,77,0.00,CLR,CLR,0.00,WeatherDisplay:10.37,2013-04-28 04:39:00,
2013-04-27 23:49:00,54.1,45.6,28.00,WSW,241,9.0,18.0,73,0.00,CLR,CLR,0.00,WeatherDisplay:10.37,2013-04-28 04:49:00,
2013-04-27 23:59:00,54.1,45.3,28.00,WSW,242,7.0,18.0,72,0.00,CLR,CLR,0.00,WeatherDisplay:10.37,2013-04-28 04:59:00,